Simultaneous Nadir Overpasses (SNOs) Predictions

Prediction of SNOs between AQUA and GOES-15 Satellite Orbit:

Table of predicted SNOs for the next 14.0 days since TLE Epoch: 8/3/2012
Index Date Time (AQUA) AQUA Lat,Lon GOES-15 Lat,Lon Distance(km) Time Diff (sec)
1 08/03/2012 10:38:04 -0.25,-135.70 -0.37,-135.17 60.65 80
2 08/05/2012 10:25:50 -0.86,-132.74 -0.37,-135.13 271.56 80
3 08/05/2012 22:47:14 -0.22,-137.93 0.38,-135.11 321.15 80
4 08/07/2012 22:35:00 0.41,-134.97 0.38,-135.06 10.63 80
5 08/09/2012 22:22:45 1.00,-131.99 0.39,-135.00 341.72 80
6 08/10/2012 10:43:59 0.07,-137.15 -0.39,-135.00 244.88 80
7 08/12/2012 10:31:45 -0.53,-134.18 -0.40,-134.94 85.50 80
8 08/14/2012 10:19:30 -1.15,-131.21 -0.40,-134.87 415.29 80
9 08/14/2012 22:40:53 0.09,-136.41 0.40,-134.84 178.21 80
10 08/16/2012 22:28:37 0.67,-133.43 0.41,-134.76 151.25 80




NCC Satellite Simultaneous Nadir Overpasses (SNOs) Prediction Service
